Location: Ausw�rts
(46.8833°N, 15.7667°E)
Time: 22:31:19
(UTC+00:00)

Daily predictions for brighter satellites

Satellite Brightness Start Highest point End
(mag) Time Altitude Azimuth Time Altitude Azimuth Time Altitude Azimuth
Cosmos 1782 Rocket 3.7 17:13:52 10° S 17:18:17 85° W 17:22:47 10° N
Okean-O 2.6 17:14:48 10° SSE 17:19:13 82° ENE 17:23:41 10° NNW
GP-B 3.7 17:15:31 10° N 17:19:56 65° W 17:24:19 10° SSW
Cosmos 1674 4.2 17:18:30 10° NNE 17:21:19 19° ENE 17:24:06 10° ESE
MOS 1 Rocket 4.0 17:20:38 10° NE 17:24:18 26° E 17:27:54 10° SSE
PSLV R/B 4.3 17:20:31 10° N 17:24:43 75° WNW 17:28:55 10° SSW
In-Cosmos 22 4.2 17:23:37 10° N 17:28:50 55° ENE 17:34:07 10° SSE
ARGOS 3.7 17:24:29 10° SE 17:29:24 38° ENE 17:34:21 10° N
NOSS 3-2 (A) 4.1 17:22:16 10° NW 17:29:46 82° NE 17:38:15 10° SE
NOSS 2-2 (C) 3.6 17:26:36 10° SW 17:30:04 62° NW 17:34:01 10° NE
Cosmos 1048 Rocket 4.2 17:25:43 10° NNW 17:30:59 58° ENE 17:36:17 10° SE
CZ-2C R/B 3.9 17:28:13 10° NE 17:32:15 20° E 17:36:16 10° SE
Cosmos 2082 Rocket 4.1 17:33:14 10° N 17:35:53 13° NE 17:38:33 10° ENE
Cosmos 1891 Rocket 4.4 17:30:06 10° S 17:36:06 64° E 17:42:05 10° NNE
Cosmos 2151 Rocket 3.9 17:34:45 10° SSE 17:39:00 44° E 17:43:17 10° NNE
Cosmos 1975 Rocket 4.0 17:36:05 10° NNW 17:40:18 52° W 17:44:29 10° S
Lacrosse 5 rocket 3.4 17:37:10 10° NW 17:40:34 22° N 17:44:03 10° NE
Cosmos 494 Rocket 4.3 17:38:52 10° NNW 17:43:59 49° ENE 17:49:05 10° SE
HJ-1C 3.4 17:40:54 10° SSE 17:44:08 57° ENE 17:47:24 10° N
COSMO-SKYMED 1 4.0 17:45:34 10° N 17:49:40 42° WNW 17:53:45 10° SW
Shenzhou-11 Module 3.6 17:50:48 10° S 17:51:33 12° SSE 17:51:33 12° SSE
Cosmos 1805 4.1 17:48:59 10° SSE 17:52:19 27° E 17:55:41 10° NNE
Ariane Rocket 3.6 17:47:59 10° SE 17:52:34 36° ENE 17:57:11 10° N
Nadezhda 4 Rocket 4.0 17:47:06 10° N 17:53:12 62° ENE 17:59:15 10° SSE
H-2A R/B 1.9 17:48:26 10° SSE 17:53:25 75° ENE 17:58:35 10° N
SL-08 RB Rocket 4.1 17:50:17 10° SE 17:54:34 41° ENE 17:58:49 10° N
OBJECT-B 2.9 17:55:36 13° ENE 17:55:36 13° ENE 17:56:55 10° NE
Exosat Rocket 3.8 17:52:57 10° S 17:58:06 45° ESE 18:02:52 10° NE
Cosmos 2263 Rocket 4.2 17:54:39 10° WSW 17:59:30 30° NW 18:04:25 10° N
USA 116 3.8 17:56:19 10° N 17:59:59 80° WNW 18:04:07 10° SSW
COSMOS 2406 4.0 17:57:32 10° NNW 18:02:40 33° NE 18:05:51 20° ESE
KORONAS-FOTON 4.0 17:58:58 10° N 18:02:49 50° ENE 18:06:24 11° SSE
Cosmos 1844 Rocket 2.6 17:57:58 10° SSW 18:03:33 82° ESE 18:09:10 10° NNE
Cosmos 1707 3.9 18:01:44 10° NNW 18:05:24 44° W 18:09:03 10° SSW
Cosmos 1626 3.2 18:03:54 10° NNE 18:06:59 24° ENE 18:07:28 24° E
Cosmos 2278 Rocket 3.7 18:09:59 16° ENE 18:09:59 16° ENE 18:11:51 10° NE
NOSS 3-2 (C) 4.1 18:00:29 10° NW 18:08:01 88° NE 18:16:08 12° SE
Cosmos 2034 Rocket 4.0 18:04:34 10° S 18:10:56 79° E 18:17:16 10° N
Cosmos 1844 3.6 18:05:19 10° SSW 18:10:59 76° ESE 18:16:38 10° NNE
USA 186 2.0 18:11:04 27° SE 18:12:30 48° ENE 18:15:42 10° N
NOSS 3-4 (A) 3.6 18:07:01 10° S 18:12:33 44° ESE 18:18:25 10° NE
NOSS 3-4 (C) 3.6 18:07:08 10° S 18:12:39 43° ESE 18:18:31 10° NE
ISS -2.7 18:09:34 10° W 18:12:48 40° N 18:14:49 19° NE
Meteor 2-5 Rocket 3.9 18:07:54 10° N 18:13:27 51° ENE 18:18:15 14° SSE
NOSS 5 (C) 4.5 18:11:09 10° NNW 18:14:16 59° NE 18:15:45 31° ESE
Lacrosse 4 Rocket 3.2 18:13:09 10° N 18:15:45 16° NE 18:16:33 16° NE
Meteor 1-24 Rocket 4.1 18:10:44 10° N 18:16:02 42° ENE 18:19:24 21° SE
Meteor 2-13 Rocket 4.4 18:11:38 10° N 18:17:46 64° ENE 18:23:50 10° SSE
Cosmos 1300 Rocket 4.5 18:15:26 10° SSW 18:19:44 52° WNW 18:24:06 10° N
Okean 1 Rocket 3.1 18:18:27 10° S 18:22:51 59° E 18:27:18 10° NNE
Resurs 01 Rocket 2.9 18:25:52 23° ENE 18:25:57 23° ENE 18:29:26 10° NNE
SL-14 R/B 3.8 18:22:26 10° N 18:26:07 36° ENE 18:26:27 35° E
CENTAUR R/B 3.3 18:18:59 10° NW 18:27:05 81° SW 18:34:46 15° SSE
Cosmos 1833 Rocket 3.3 18:22:57 10° NNW 18:28:13 38° NE 18:30:12 29° E
Cosmos 1766 3.1 18:30:00 10° S 18:33:52 66° E 18:37:49 10° NNE
ATLAS 2AS CENTAUR R/B 3.0 18:27:19 10° SSW 18:35:05 61° ESE 18:42:50 10° NE
Cosmos 1634 Rocket 4.0 18:32:37 10° S 18:38:39 59° E 18:44:44 10° NNE
ATLAS 3B R/B 3.0 18:32:43 10° NW 18:39:25 54° NE 18:42:35 32° ESE
SPOT 3 Rocket 3.9 18:40:10 37° ESE 18:41:25 45° ENE 18:46:19 10° N
ARIANE 5 R/B 4.3 18:42:31 18° NE 18:42:31 18° NE 18:44:39 10° NNE
Abrixas rocket 2.9 18:39:50 10° W 18:42:11 39° SW 18:42:11 39° SW
CREW DRAGON DEMO-1 DEB 3.6 18:41:30 10° WNW 18:44:16 43° SW 18:44:16 43° SW
Cosmos 1125 Rocket 4.2 18:42:06 10° SW 18:47:20 57° WNW 18:52:36 10° NNE
Resurs 1-3 3.7 18:48:54 52° E 18:49:14 54° ENE 18:53:32 10° N
SJ-6B 2.7 18:48:31 48° S 18:49:30 80° WSW 18:53:19 10° NNW
Cosmos 1892 Rocket 3.7 18:47:16 10° N 18:51:24 52° ENE 18:51:24 52° ENE
Cosmos 2195 Rocket 4.5 18:48:45 10° N 18:55:01 83° W 19:00:07 16° S
Cosmos 1627 Rocket 4.5 18:50:13 10° N 18:56:39 89° W 19:01:24 19° S
Cosmos 1674 4.3 18:53:25 10° NNW 18:56:57 35° W 19:00:17 11° SSW
Cosmos 2026 Rocket 4.0 18:51:30 10° N 18:57:55 89° E 19:02:16 22° S
Cosmos 2285 Rocket 4.3 18:51:46 10° SSW 18:58:02 66° WNW 19:04:24 10° NNE
Cosmos 1092 Rocket 4.2 18:51:55 10° NNW 18:58:03 71° W 19:04:14 10° S
Cosmos 1428 Rocket 4.5 19:00:10 10° N 19:06:28 84° W 19:10:06 27° S
TSX-5 4.4 19:05:29 10° SW 19:09:21 64° NW 19:14:23 10° NNE
CZ-2C R/B 3.0 19:07:28 10° N 19:13:00 67° WNW 19:18:34 10° SSW
Cosmos 1340 Rocket 3.3 19:15:11 56° NNW 19:15:11 56° NNW 19:18:28 10° N
Cosmos 2279 Rocket 3.9 19:12:59 42° SSE 19:15:10 70° E 19:21:26 10° NNE
Cosmos 1733 4.3 19:13:48 19° SW 19:16:11 43° WNW 19:19:52 10° N
MetOp-B 4.4 19:17:29 49° NE 19:17:29 49° NE 19:22:17 10° N
Lacrosse 5 rocket 2.8 19:16:49 10° NW 19:20:43 32° NNE 19:20:43 32° NNE
Cosmos 2098 Rocket 3.9 19:14:39 10° N 19:21:17 57° ENE 19:21:19 57° ENE
Cosmos 2082 Rocket 2.4 19:15:48 10° NNW 19:21:17 54° NE 19:21:17 54° NE
DMSP B5D2-2 4.5 19:17:36 10° N 19:22:50 62° WNW 19:28:02 10° SSW
Spot 2 Rocket 4.5 19:25:14 34° NNE 19:25:14 34° NNE 19:28:42 10° N
BREEZE-M R/B 3.9 19:17:59 10° W 19:24:25 59° WNW 19:24:25 59° WNW
OBJECT-B 3.0 19:28:48 25° NW 19:28:48 25° NW 19:30:29 10° NNW
Cosmos 2142 Rocket 4.5 19:24:37 22° SSW 19:28:56 82° W 19:35:12 10° N
Ariane Rocket 4.5 19:28:06 16° SSW 19:31:32 33° W 19:36:07 10° NNW
Terra 4.0 19:42:50 15° NNE 19:42:50 15° NNE 19:44:04 10° NNE
Cosmos 1626 4.3 19:39:08 10° NW 19:42:02 24° W 19:42:02 24° W
Okean 1-7 Rocket 4.4 19:38:11 10° NNW 19:41:51 51° NW 19:41:51 51° NW
SPOT 1/Viking Rocket 4.5 19:48:44 39° NNE 19:48:44 39° NNE 19:52:08 10° N
COSMOS 2406 3.9 19:41:44 10° NW 19:47:07 46° WSW 19:47:56 43° SW
ISS -0.7 19:46:52 10° WNW 19:47:46 16° NW 19:47:46 16° NW
Cosmos 2278 Rocket 2.3 19:45:48 10° SW 19:51:32 71° NW 19:57:07 10° NNE
Lacrosse 4 Rocket 3.2 19:50:51 10° NW 19:52:52 28° NW 19:52:52 28° NW
Cosmos 909 Rocket 4.0 19:53:47 10° NW 19:59:55 80° NW 19:59:55 80° NW
Cosmos 2266 Rocket 4.1 19:55:25 10° N 20:00:33 66° N 20:00:33 66° N
Resurs 01 Rocket 3.2 20:03:26 34° WNW 20:03:26 34° WNW 20:06:27 10° NNW
NOSS 3-4 (A) 4.4 19:57:43 10° WSW 20:03:26 44° NW 20:09:35 10° NNE
NOSS 3-4 (C) 4.4 19:57:49 10° WSW 20:03:31 45° NW 20:09:42 10° NNE
Cosmos 1833 Rocket 3.7 20:06:56 10° NW 20:11:54 39° W 20:11:54 39° W
ATLAS 2AS CENTAUR R/B 3.9 20:18:50 10° WSW 20:26:27 46° NW 20:33:55 10° NE
ATLAS 3B R/B 3.6 20:23:38 10° NW 20:29:50 41° WSW 20:29:50 41° WSW
Cosmos 2082 Rocket 4.2 21:00:30 10° NW 21:03:08 21° WNW 21:03:08 21° WNW
SL-16 R/B 4.2 23:50:37 27° NNE 23:50:37 27° NNE 23:53:35 10° N
